[[{"header":{"parameterUnit":"m.s-1","parameterCategory":2,"la1":30.2991,"la2":30.254,"lo1":-89.0895,"lo2":-89.0444,"dy":0.0017,"dx":0.0017,"nx":28,"ny":28,"refTime":"2025-05-15T09:00:00:Z","depth":"0","parameterNumber":2,"parameterNumberName":"U-component_of_CURRENTS"},"data":[0,0,0,0,0,0,0,0,0,0,0,0,0,0,0,0,0,0,0,0,0,0,0,0,0,0,0,0,0,0,0,0,0,0,0,0,0,0,0,0,0,0,0,0,0,0,0,0,0,0,0,0,0,0,0,0,0,0,-0.2526,-0.2526,0,-0.2505,-0.2505,-0.2504,-0.2475,-0.2475,-0.2475,-0.2475,-0.2446,-0.2445,-0.2444,0,0,0,0,0,0,0,0,0,0,0,0,0,-0.2485,-0.2486,-0.2526,-0.2526,-0.2526,-0.2505,-0.2505,-0.2504,-0.2475,-0.2475,-0.2475,-0.2475,-0.2446,-0.2445,-0.2444,0,0,0,0,0,0,0,0,0,0,0,0,0,-0.2484,-0.2486,-0.2526,-0.2512,-0.2511,-0.2506,-0.2505,-0.2504,-0.2475,-0.2475,-0.2475,-0.2475,-0.2446,-0.2445,-0.2444,-0.2442,0,0,-0.2441,-0.2441,0,0,0,0,0,0,0,0,-0.2484,-0.2485,-0.2514,-0.2513,-0.2512,-0.2496,-0.248,-0.2484,-0.2476,-0.2485,-0.2475,-0.2475,-0.2464,-0.2462,-0.2453,-0.2441,-0.244,-0.2441,-0.2441,-0.244,-0.244,0,0,0,0,0,0,0,-0.2484,-0.2485,-0.2514,-0.2514,-0.2513,-0.2488,-0.2488,-0.248,-0.2473,-0.2484,-0.2483,-0.2487,-0.2463,-0.2454,-0.2452,-0.2439,-0.2441,-0.244,-0.244,-0.2439,-0.2423,-0.2423,0,0,0,0,0,0,-0.2498,-0.2486,-0.2515,-0.2514,-0.2501,-0.249,-0.2489,-0.2498,-0.2473,-0.247,-0.2487,-0.2486,-0.2456,-0.2454,-0.2451,-0.2461,-0.244,-0.2439,-0.2439,-0.2423,-0.2423,-0.2423,0,0,0,0,0,0,-0.2497,-0.2501,-0.2515,-0.2502,-0.2502,-0.2491,-0.2501,-0.2498,-0.249,-0.2476,-0.2472,-0.2484,-0.2456,-0.2453,-0.2442,-0.2459,-0.2439,-0.2438,-0.2423,-0.2423,-0.2423,-0.2472,0,0,0,0,0,0,-0.2496,-0.2501,-0.2505,-0.2503,-0.2504,-0.2522,-0.2502,-0.2498,-0.2495,-0.2493,-0.2472,-0.2469,-0.2455,-0.2444,-0.2441,-0.2458,-0.2437,-0.2423,-0.2423,-0.2423,-0.2471,-0.2474,-0.2477,0,0,0,0,0,-0.2495,-0.2505,-0.2506,-0.2509,-0.2513,-0.2523,-0.2521,-0.2509,-0.2495,-0.2499,-0.2477,-0.247,-0.2444,-0.2443,-0.244,-0.2457,-0.2423,-0.2423,-0.2423,-0.2469,-0.2474,-0.2477,0,0,0,0,0,0,-0.2483,-0.2504,-0.2504,-0.2518,-0.2526,-0.252,-0.2518,-0.2512,-0.2496,-0.2489,-0.247,-0.2465,-0.2463,-0.2449,-0.2449,-0.2451,-0.2433,-0.2433,-0.2469,-0.2473,-0.2476,-0.2492,-0.2436,0,0,0,0,0,-0.2486,-0.2499,-0.2515,-0.2523,-0.2531,-0.2524,-0.2523,-0.252,-0.251,-0.2502,-0.2489,-0.2471,-0.2462,-0.2459,-0.2447,-0.2448,-0.2432,-0.2456,-0.246,-0.2463,-0.2472,-0.2465,-0.2469,-0.2425,-0.2425,-0.2425,0,0,-0.248,-0.2495,-0.2499,-0.2521,-0.2521,-0.2541,-0.2522,-0.2527,-0.2539,-0.2502,-0.2503,-0.2483,-0.2464,-0.2464,-0.2463,-0.2456,-0.2463,-0.2463,-0.2466,-0.2474,-0.2466,-0.247,-0.2474,-0.2425,-0.2425,-0.2425,0,0,-0.2481,-0.2492,-0.2507,-0.2524,-0.254,-0.2544,-0.2551,-0.2552,-0.2549,-0.2548,-0.2526,-0.2515,-0.2498,-0.2493,-0.2486,-0.2501,-0.248,-0.2496,-0.2531,-0.2523,-0.2527,-0.2531,-0.2501,-0.2501,-0.25,-0.2501,-0.2501,0,-0.2471,-0.2499,-0.2511,-0.2537,-0.2552,-0.2552,-0.2574,-0.2578,-0.2574,-0.2571,-0.2555,-0.2531,-0.2515,-0.2522,-0.2526,-0.2512,-0.2494,-0.2519,-0.2529,-0.2532,-0.2535,-0.2503,-0.2503,-0.2503,-0.2503,-0.2502,-0.2502,0,-0.2488,-0.2516,-0.2527,-0.2565,-0.2583,-0.26,-0.2621,-0.2627,-0.2619,-0.2616,-0.2613,-0.2588,-0.2574,-0.2569,-0.2552,-0.2567,-0.2542,-0.2534,-0.2523,-0.2543,-0.2507,-0.2506,-0.2506,-0.2506,-0.2505,-0.2504,0,0,-0.2442,-0.2525,-0.2525,-0.2553,-0.26,-0.2612,-0.2645,-0.2667,-0.2676,-0.2669,-0.2676,-0.2662,-0.2641,-0.2633,-0.2614,-0.2611,-0.2607,-0.2585,-0.2583,-0.2562,-0.2574,-0.2433,-0.2418,-0.2602,-0.2602,-0.2603,-0.2537,0,-0.2446,-0.2506,-0.2546,-0.2592,-0.2622,-0.2652,-0.2681,-0.27,-0.2704,-0.2711,-0.2697,-0.269,-0.267,-0.2658,-0.2657,-0.2621,-0.2608,-0.2624,-0.2552,-0.255,-0.2428,-0.2413,-0.2301,-0.2222,-0.2535,-0.2535,-0.2535,0,-0.2433,-0.2484,-0.2536,-0.2612,-0.2625,-0.2653,-0.269,-0.2718,-0.2741,-0.2742,-0.2746,-0.2731,-0.2731,-0.2705,-0.2668,-0.2679,-0.2632,-0.2602,-0.2598,-0.2452,-0.2406,-0.2255,-0.2208,-0.2197,-0.2533,-0.2533,-0.2533,0,-0.2371,-0.2464,-0.2504,-0.2531,-0.2618,-0.2638,-0.2677,-0.2713,-0.274,-0.2759,-0.2768,-0.2765,-0.2752,-0.2721,-0.2647,-0.2664,-0.2586,-0.26,-0.2428,-0.2417,-0.2298,-0.2275,-0.2238,-0.2569,-0.2569,-0.2569,-0.2569,0,-0.2344,-0.2369,-0.248,-0.2498,-0.2546,-0.2608,-0.2648,-0.2682,-0.2734,-0.272,-0.2775,-0.2741,-0.2757,-0.2708,-0.2654,-0.2515,-0.2586,-0.2424,-0.2389,-0.2307,-0.2286,-0.2252,-0.2294,-0.2566,-0.2567,-0.2567,-0.2568,0,-0.2245,-0.2324,-0.2375,-0.248,-0.2516,-0.2539,-0.2647,-0.2659,-0.2725,-0.2711,-0.2716,-0.2738,-0.264,-0.2628,-0.2549,-0.2494,-0.2342,-0.2325,-0.221,-0.2161,-0.1986,-0.2034,-0.1971,-0.1915,-0.214,-0.2136,-0.2132,0,-0.2195,-0.2213,-0.234,-0.2365,-0.241,-0.2478,-0.251,-0.2627,-0.2615,-0.2647,-0.2594,-0.2571,-0.2447,-0.2324,-0.2222,-0.2105,-0.2155,-0.1961,-0.1971,-0.1944,-0.1975,-0.2034,-0.1999,-0.1837,-0.1831,-0.1827,-0.1823,0,-0.208,-0.2125,-0.2167,-0.2225,-0.2272,-0.2304,-0.2339,-0.2364,-0.242,-0.2438,-0.233,-0.2262,-0.2148,-0.1966,-0.1867,-0.179,-0.1918,-0.1861,-0.188,-0.1762,-0.1782,-0.172,-0.1912,-0.1783,-0.1787,-0.179,-0.1792,-0.1794,-0.1963,-0.1968,-0.2004,-0.2044,-0.207,-0.2,-0.1969,-0.1972,-0.1938,-0.1847,-0.1981,-0.1844,-0.1819,-0.1636,-0.156,-0.145,-0.1559,-0.1442,-0.1511,-0.1579,-0.1501,-0.1577,-0.1377,-0.1379,-0.138,-0.1381,-0.1382,0,-0.1792,-0.1797,-0.1812,-0.1787,-0.1693,-0.1783,-0.1737,-0.1652,-0.1503,-0.1489,-0.1427,-0.1429,-0.1306,-0.1297,-0.1216,-0.1156,-0.1173,-0.1165,-0.1265,-0.125,-0.1339,-0.1298,-0.1014,-0.1014,-0.1014,-0.1014,-0.1014,-0.1014,-0.1695,-0.1633,-0.1643,-0.1399,-0.1365,-0.1173,-0.1115,-0.1014,-0.0957,-0.0846,-0.0834,-0.0889,-0.1043,-0.121,-0.1144,-0.1082,-0.1111,-0.1059,-0.1123,-0.1237,-0.1271,-0.1303,-0.1273,-0.0988,-0.0989,-0.0976,-0.0976,-0.0977]},{"header":{"parameterUnit":"m.s-1","parameterCategory":2,"la1":30.2991,"la2":30.254,"lo1":-89.0895,"lo2":-89.0444,"dy":0.0017,"dx":0.0017,"nx":28,"ny":28,"refTime":"2025-05-15T09:00:00:Z","depth":"0","parameterNumber":3,"parameterNumberName":"V-component_of_CURRENTS"},"data":[0,0,0,0,0,0,0,0,0,0,0,0,0,0,0,0,0,0,0,0,0,0,0,0,0,0,0,0,0,0,0,0,0,0,0,0,0,0,0,0,0,0,0,0,0,0,0,0,0,0,0,0,0,0,0,0,0,0,-0.0189,-0.0188,0,-0.0119,-0.0118,-0.0117,-0.0067,-0.0067,-0.0066,-0.0066,0.0086,0.009,0.0093,0,0,0,0,0,0,0,0,0,0,0,0,0,-0.0228,-0.0228,-0.0189,-0.0188,-0.0187,-0.0119,-0.0118,-0.0117,-0.0067,-0.0067,-0.0066,-0.0066,0.0085,0.0089,0.0094,0,0,0,0,0,0,0,0,0,0,0,0,0,-0.0189,-0.0228,-0.0189,-0.0155,-0.0151,-0.0119,-0.0118,-0.0117,-0.0067,-0.0067,-0.0066,-0.0066,0.0083,0.0089,0.0094,0.012,0,0,0.0112,0.0114,0,0,0,0,0,0,0,0,-0.0192,-0.0188,-0.0161,-0.0157,-0.0153,-0.0102,-0.0076,-0.0034,-0.0067,-0.0098,-0.0066,-0.0066,0.003,0.004,0.0052,0.0127,0.0133,0.0112,0.0116,0.0118,0.012,0,0,0,0,0,0,0,-0.0195,-0.019,-0.016,-0.016,-0.0155,-0.0126,-0.012,-0.0068,-0.0035,-0.0095,-0.0092,-0.0086,0.0033,0.0046,0.0056,0.0135,0.0112,0.0117,0.012,0.0123,0.0243,0.0242,0,0,0,0,0,0,-0.0208,-0.0193,-0.0163,-0.0158,-0.0173,-0.0126,-0.0119,-0.0118,-0.0038,-0.0026,-0.0086,-0.0084,0.0037,0.005,0.0062,0.0089,0.0118,0.0123,0.0126,0.0243,0.0243,0.0242,0,0,0,0,0,0,-0.021,-0.0207,-0.0165,-0.0174,-0.0167,-0.0126,-0.0125,-0.0117,-0.0104,-0.0032,-0.0018,-0.0081,0.0038,0.0054,0.0098,0.0096,0.0126,0.0131,0.0243,0.0243,0.0242,0.015,0,0,0,0,0,0,-0.0211,-0.0208,-0.0214,-0.0176,-0.0167,-0.0155,-0.0125,-0.0116,-0.0101,-0.0097,-0.0023,-0.0008,0.0039,0.0089,0.0103,0.0104,0.0135,0.0243,0.0243,0.0243,0.0153,0.0146,0.014,0,0,0,0,0,-0.0213,-0.0228,-0.0215,-0.0211,-0.0177,-0.0156,-0.0149,-0.0117,-0.0102,-0.0102,-0.0055,-0.0011,0.0097,0.0093,0.011,0.0113,0.0243,0.0243,0.0243,0.0156,0.0147,0.014,0,0,0,0,0,0,-0.0253,-0.0223,-0.0208,-0.0214,-0.019,-0.0148,-0.0147,-0.0123,-0.0087,-0.0082,-0.0014,0.0004,0.0042,0.0089,0.0083,0.0147,0.0179,0.0181,0.0107,0.01,0.0093,0.0079,0.014,0,0,0,0,0,-0.0265,-0.0267,-0.0231,-0.0238,-0.0228,-0.0188,-0.0176,-0.0155,-0.0117,-0.0101,-0.005,0.0006,0.0053,0.0084,0.0133,0.0168,0.0232,0.0182,0.0176,0.017,0.017,0.0251,0.0252,0.0241,0.0241,0.0241,0,0,-0.0283,-0.0267,-0.0268,-0.0246,-0.0224,-0.0223,-0.018,-0.0169,-0.0164,-0.0089,-0.0067,-0.0014,0.0057,0.0092,0.0114,0.0132,0.0208,0.017,0.0164,0.0167,0.025,0.0251,0.0253,0.0241,0.0241,0.0241,0,0,-0.0328,-0.0306,-0.0324,-0.0307,-0.0282,-0.0254,-0.0254,-0.0214,-0.0192,-0.0164,-0.0111,-0.0062,0.0009,0.0059,0.0094,0.0085,0.0169,0.0102,0.0064,0.0142,0.0143,0.0145,0.0232,0.0243,0.0102,0.0102,0.0102,0,-0.0354,-0.0369,-0.0327,-0.0339,-0.0332,-0.0274,-0.029,-0.0259,-0.0211,-0.0186,-0.0169,-0.0059,-0.0005,0.0051,0.004,0.0072,0.0132,0.0083,0.0133,0.0137,0.014,0.0229,0.0242,0.0098,0.0098,0.0099,0.0099,0,-0.041,-0.0419,-0.0429,-0.0422,-0.0407,-0.0411,-0.0363,-0.0339,-0.0301,-0.0261,-0.02,-0.0126,-0.0057,-0.0035,-0.0002,0.005,0.009,0.0111,0.0148,0.0136,0.023,0.0245,0.0091,0.0093,0.0094,0.0095,0,0,-0.0477,-0.0472,-0.0475,-0.0479,-0.0451,-0.0439,-0.0427,-0.0388,-0.0361,-0.0306,-0.0266,-0.0194,-0.0142,-0.01,-0.0041,0.0021,0.0094,0.0066,0.0072,0.0145,0.0277,0.0332,0.0355,0.0122,0.0124,0.0126,0.0334,0,-0.0536,-0.058,-0.0554,-0.0579,-0.0593,-0.0531,-0.0516,-0.0466,-0.0408,-0.035,-0.0262,-0.0199,-0.0169,-0.0128,-0.0069,0.0061,0.0128,0.0036,0.0285,0.0293,0.0337,0.0372,0.0389,0.0578,0.0349,0.0352,0.0354,0,-0.0602,-0.0618,-0.0666,-0.0644,-0.0641,-0.0641,-0.0584,-0.0561,-0.0464,-0.0413,-0.0338,-0.0256,-0.0156,-0.013,0.0075,0.0015,0.0129,0.0227,0.0238,0.0332,0.0376,0.0555,0.0616,0.0749,0.0378,0.0376,0.0374,0,-0.0671,-0.0687,-0.0726,-0.0725,-0.0698,-0.0692,-0.0664,-0.0585,-0.0532,-0.0445,-0.0377,-0.027,-0.0162,-0.004,0.0158,0.012,0.0402,0.0382,0.0544,0.055,0.0637,0.0647,0.0851,0.0525,0.0524,0.0524,0.0523,0,-0.0747,-0.0768,-0.076,-0.0781,-0.0793,-0.0749,-0.072,-0.068,-0.0579,-0.0473,-0.0411,-0.0283,-0.013,0.0054,0.0175,0.0429,0.0427,0.0555,0.0612,0.0606,0.061,0.0788,0.0822,0.0532,0.053,0.0528,0.0527,0,-0.0821,-0.0821,-0.0855,-0.0843,-0.0833,-0.0841,-0.0752,-0.0672,-0.0618,-0.0475,-0.0437,-0.0252,-0.0015,0.0152,0.0409,0.0502,0.0796,0.0786,0.0773,0.0823,0.1043,0.1069,0.1337,0.1439,0.0975,0.0978,0.098,0,-0.0864,-0.0898,-0.0908,-0.0885,-0.0879,-0.0856,-0.0775,-0.0707,-0.0585,-0.0415,-0.0298,-0.0088,0.012,0.048,0.0664,0.089,0.0977,0.1049,0.0964,0.1081,0.1153,0.1164,0.123,0.1054,0.1056,0.1059,0.106,0,-0.0937,-0.0943,-0.0966,-0.092,-0.0857,-0.0766,-0.0652,-0.0581,-0.0424,-0.0295,-0.0055,0.0082,0.0387,0.0652,0.0906,0.103,0.1139,0.1101,0.1237,0.1247,0.1262,0.1378,0.0894,0.108,0.1078,0.1076,0.1075,0.1075,-0.0973,-0.1002,-0.0989,-0.0926,-0.0823,-0.0633,-0.0567,-0.0371,-0.0195,0.0039,0.0149,0.0391,0.0625,0.0968,0.1119,0.1389,0.1342,0.1453,0.1484,0.1493,0.1561,0.1121,0.135,0.1349,0.1349,0.1349,0.1348,0,-0.0988,-0.0982,-0.0945,-0.0846,-0.0676,-0.0629,-0.0417,-0.0306,-0.0067,0.0186,0.039,0.0729,0.1028,0.1248,0.1573,0.1746,0.177,0.1839,0.1854,0.1911,0.155,0.152,0.1779,0.1779,0.1779,0.1779,0.1779,0.1778,-0.0988,-0.0969,-0.0933,-0.0692,-0.0594,-0.0391,-0.0277,-0.0102,0.0075,0.0438,0.0691,0.0852,0.1158,0.1683,0.2044,0.2085,0.2249,0.223,0.2343,0.2064,0.2029,0.1996,0.1979,0.233,0.233,0.2691,0.2694,0.2696]}],[{"header":{"parameterUnit":"m.s-1","parameterCategory":2,"la1":30.2991,"la2":30.254,"lo1":-89.0895,"lo2":-89.0444,"dy":0.0017,"dx":0.0017,"nx":28,"ny":28,"refTime":"2025-05-15T09:00:00:Z","depth":"2","parameterNumber":2,"parameterNumberName":"U-component_of_CURRENTS"},"data":[0,0,0,0,0,0,0,0,0,0,0,0,0,0,0,0,0,0,0,0,0,0,0,0,0,0,0,0,0,0,0,0,0,0,0,0,0,0,0,0,0,0,0,0,0,0,0,0,0,0,0,0,0,0,0,0,0,0,-0.24,-0.24,0,-0.24,-0.24,-0.24,-0.2383,-0.2382,-0.2382,-0.2382,-0.2368,-0.2368,-0.2367,0,0,0,0,0,0,0,0,0,0,0,0,0,-0.2344,-0.2346,-0.24,-0.24,-0.24,-0.24,-0.24,-0.24,-0.2383,-0.2382,-0.2382,-0.2382,-0.2368,-0.2368,-0.2367,0,0,0,0,0,0,0,0,0,0,0,0,0,-0.2356,-0.2346,-0.24,-0.2394,-0.2394,-0.24,-0.24,-0.2399,-0.2383,-0.2382,-0.2382,-0.2382,-0.2368,-0.2368,-0.2367,-0.2369,0,0,-0.2366,-0.2366,0,0,0,0,0,0,0,0,-0.2355,-0.2358,-0.2395,-0.2395,-0.2395,-0.2394,-0.2375,-0.239,-0.2383,-0.2383,-0.2382,-0.2382,-0.2378,-0.2376,-0.2372,-0.2369,-0.2368,-0.2366,-0.2366,-0.2366,-0.2366,0,0,0,0,0,0,0,-0.2355,-0.2357,-0.2396,-0.2395,-0.2395,-0.2379,-0.238,-0.2378,-0.2379,-0.2383,-0.2383,-0.2388,-0.2377,-0.2373,-0.2372,-0.2368,-0.2366,-0.2366,-0.2366,-0.2365,-0.2369,-0.2369,0,0,0,0,0,0,-0.2364,-0.2357,-0.2397,-0.2397,-0.2378,-0.238,-0.2381,-0.2392,-0.2379,-0.2378,-0.2389,-0.2388,-0.2374,-0.2372,-0.2371,-0.2389,-0.2366,-0.2365,-0.2365,-0.2368,-0.2369,-0.2369,0,0,0,0,0,0,-0.2363,-0.2368,-0.2397,-0.2379,-0.2382,-0.2382,-0.2393,-0.2392,-0.2392,-0.2384,-0.2382,-0.2391,-0.2373,-0.2372,-0.2372,-0.2388,-0.2365,-0.2365,-0.2368,-0.2369,-0.2369,-0.2415,0,0,0,0,0,0,-0.2361,-0.2367,-0.2374,-0.238,-0.2384,-0.2411,-0.2394,-0.2392,-0.2397,-0.2396,-0.2386,-0.2384,-0.2373,-0.2372,-0.2371,-0.2387,-0.2365,-0.2368,-0.2368,-0.2369,-0.2413,-0.2417,-0.242,0,0,0,0,0,-0.2359,-0.2373,-0.2374,-0.2379,-0.2394,-0.2412,-0.2412,-0.2408,-0.2398,-0.2405,-0.2392,-0.2384,-0.2375,-0.2372,-0.2371,-0.2387,-0.2367,-0.2368,-0.2369,-0.2411,-0.2416,-0.242,0,0,0,0,0,0,-0.2348,-0.2373,-0.2375,-0.2394,-0.2407,-0.2411,-0.2415,-0.2413,-0.2408,-0.2403,-0.2388,-0.2386,-0.2392,-0.2381,-0.2378,-0.2388,-0.237,-0.2371,-0.2403,-0.2407,-0.2411,-0.2423,-0.2364,0,0,0,0,0,-0.2352,-0.2368,-0.2388,-0.2401,-0.2411,-0.2413,-0.2418,-0.2419,-0.2418,-0.2415,-0.2407,-0.2397,-0.2393,-0.2393,-0.2387,-0.2394,-0.2378,-0.2403,-0.2406,-0.241,-0.2418,-0.2409,-0.2413,-0.2372,-0.2372,-0.2372,0,0,-0.2348,-0.2365,-0.2372,-0.24,-0.2406,-0.2429,-0.2414,-0.2428,-0.2444,-0.2415,-0.2425,-0.241,-0.2397,-0.2404,-0.2406,-0.2398,-0.241,-0.241,-0.2413,-0.242,-0.241,-0.2414,-0.2418,-0.2372,-0.2372,-0.2372,0,0,-0.2355,-0.2368,-0.2387,-0.2407,-0.2429,-0.2437,-0.2445,-0.2456,-0.2458,-0.2467,-0.2449,-0.2444,-0.2438,-0.2434,-0.243,-0.245,-0.2428,-0.2447,-0.2479,-0.247,-0.2474,-0.2476,-0.2449,-0.245,-0.2451,-0.2451,-0.2451,0,-0.2349,-0.2379,-0.2394,-0.2422,-0.2439,-0.2445,-0.247,-0.248,-0.2487,-0.2489,-0.2476,-0.2466,-0.2454,-0.2466,-0.2471,-0.246,-0.2444,-0.2465,-0.2476,-0.2478,-0.2481,-0.2452,-0.2452,-0.2453,-0.2453,-0.2452,-0.2452,0,-0.2372,-0.24,-0.2414,-0.2454,-0.2474,-0.2496,-0.2521,-0.2533,-0.2531,-0.2534,-0.2541,-0.2522,-0.2515,-0.2513,-0.2498,-0.2512,-0.249,-0.2481,-0.2467,-0.2488,-0.2456,-0.2455,-0.2456,-0.2455,-0.2455,-0.2454,0,0,-0.2337,-0.2416,-0.2418,-0.2446,-0.2494,-0.251,-0.2546,-0.2573,-0.2586,-0.259,-0.2601,-0.2596,-0.2579,-0.2573,-0.2556,-0.2553,-0.2548,-0.2528,-0.2526,-0.2505,-0.2515,-0.2402,-0.239,-0.2541,-0.2541,-0.2542,-0.2482,0,-0.2345,-0.2407,-0.2443,-0.2491,-0.2523,-0.2553,-0.2584,-0.2608,-0.2618,-0.2631,-0.2623,-0.2623,-0.2606,-0.2596,-0.2595,-0.256,-0.2549,-0.2564,-0.2494,-0.2492,-0.2394,-0.2386,-0.2209,-0.2133,-0.2481,-0.2481,-0.248,0,-0.2343,-0.239,-0.2443,-0.2515,-0.253,-0.2558,-0.2599,-0.2629,-0.2658,-0.2663,-0.2671,-0.2661,-0.266,-0.2637,-0.2602,-0.2612,-0.2569,-0.2541,-0.2538,-0.2418,-0.2377,-0.217,-0.2117,-0.2478,-0.2478,-0.2478,-0.2479,0,-0.2294,-0.2381,-0.2422,-0.2447,-0.253,-0.2552,-0.2588,-0.2628,-0.2651,-0.2679,-0.2684,-0.2689,-0.2676,-0.2647,-0.2586,-0.2595,-0.2534,-0.2534,-0.2394,-0.2385,-0.2212,-0.2187,-0.2506,-0.2506,-0.2506,-0.2507,-0.2507,0,-0.2276,-0.2303,-0.2404,-0.2423,-0.2466,-0.253,-0.2565,-0.26,-0.2648,-0.2658,-0.269,-0.2679,-0.2678,-0.2642,-0.2594,-0.2476,-0.2534,-0.2393,-0.2362,-0.222,-0.2197,-0.2485,-0.2483,-0.2504,-0.2505,-0.2505,-0.2506,0,-0.2195,-0.2268,-0.2318,-0.2415,-0.2442,-0.2465,-0.2552,-0.2566,-0.2627,-0.2641,-0.2648,-0.2671,-0.26,-0.2576,-0.2513,-0.2459,-0.2377,-0.2321,-0.2145,-0.2093,-0.2235,-0.2237,-0.2162,-0.2158,-0.2154,-0.2151,-0.2148,0,-0.2155,-0.2174,-0.2285,-0.23,-0.2338,-0.2396,-0.2421,-0.2528,-0.2553,-0.2608,-0.2598,-0.2566,-0.2476,-0.2353,-0.2246,-0.2125,-0.2241,-0.1936,-0.1919,-0.2222,-0.22,-0.2207,-0.2214,-0.1707,-0.1701,-0.1696,-0.1692,0,-0.2054,-0.2096,-0.213,-0.2172,-0.2209,-0.2298,-0.2358,-0.2396,-0.2495,-0.2499,-0.2465,-0.2395,-0.2237,-0.2012,-0.1887,-0.1811,-0.1943,-0.1828,-0.2183,-0.1822,-0.1787,-0.1768,-0.179,-0.1648,-0.1652,-0.1655,-0.1658,-0.1659,-0.1944,-0.1939,-0.1971,-0.1993,-0.2086,-0.219,-0.2185,-0.2274,-0.2313,-0.2272,-0.2273,-0.2057,-0.1969,-0.162,-0.1524,-0.1457,-0.1589,-0.1552,-0.157,-0.1593,-0.1551,-0.1511,-0.1311,-0.1314,-0.1316,-0.1318,-0.1319,0,-0.178,-0.1773,-0.1778,-0.1824,-0.1859,-0.1995,-0.211,-0.2047,-0.2043,-0.2004,-0.1904,-0.1567,-0.138,-0.129,-0.1087,-0.1061,-0.108,-0.105,-0.1083,-0.1125,-0.1164,-0.1104,-0.0744,-0.0742,-0.0741,-0.074,0,0,-0.1681,-0.1607,-0.1605,-0.1574,-0.163,-0.1642,-0.1698,-0.1667,-0.162,-0.1488,-0.134,-0.1294,-0.1223,-0.0974,-0.0931,-0.0799,-0.0962,-0.0761,-0.1218,-0.1296,-0.1333,-0.144,-0.1392,0,0,0,0,0]},{"header":{"parameterUnit":"m.s-1","parameterCategory":2,"la1":30.2991,"la2":30.254,"lo1":-89.0895,"lo2":-89.0444,"dy":0.0017,"dx":0.0017,"nx":28,"ny":28,"refTime":"2025-05-15T09:00:00:Z","depth":"2","parameterNumber":3,"parameterNumberName":"V-component_of_CURRENTS"},"data":[0,0,0,0,0,0,0,0,0,0,0,0,0,0,0,0,0,0,0,0,0,0,0,0,0,0,0,0,0,0,0,0,0,0,0,0,0,0,0,0,0,0,0,0,0,0,0,0,0,0,0,0,0,0,0,0,0,0,-0.0291,-0.0291,0,-0.0217,-0.0216,-0.0215,-0.017,-0.017,-0.017,-0.0169,-0.0022,-0.0018,-0.0015,0,0,0,0,0,0,0,0,0,0,0,0,0,-0.0341,-0.034,-0.0291,-0.0291,-0.029,-0.0217,-0.0216,-0.0215,-0.017,-0.017,-0.0169,-0.0169,-0.0023,-0.0019,-0.0014,0,0,0,0,0,0,0,0,0,0,0,0,0,-0.0298,-0.034,-0.0292,-0.0259,-0.0255,-0.0218,-0.0216,-0.0215,-0.017,-0.017,-0.0169,-0.0169,-0.0025,-0.0019,-0.0014,0.0016,0,0,0.0004,0.0006,0,0,0,0,0,0,0,0,-0.03,-0.0296,-0.0265,-0.0261,-0.0257,-0.0203,-0.018,-0.0134,-0.017,-0.0202,-0.0169,-0.0169,-0.0077,-0.0067,-0.0053,0.0023,0.003,0.0004,0.0007,0.001,0.0012,0,0,0,0,0,0,0,-0.0303,-0.0298,-0.0261,-0.0264,-0.0259,-0.023,-0.0224,-0.0171,-0.0139,-0.0199,-0.0195,-0.0189,-0.0074,-0.0059,-0.0049,0.0032,0.0004,0.0009,0.0012,0.0015,0.014,0.0139,0,0,0,0,0,0,-0.0317,-0.0301,-0.0264,-0.0259,-0.0279,-0.023,-0.0223,-0.022,-0.0141,-0.013,-0.0189,-0.0187,-0.0069,-0.0056,-0.0044,-0.0007,0.001,0.0015,0.0018,0.014,0.014,0.0139,0,0,0,0,0,0,-0.0318,-0.0315,-0.0267,-0.0279,-0.0271,-0.0229,-0.0226,-0.0219,-0.0204,-0.0135,-0.0122,-0.0182,-0.0068,-0.0052,-0.0005,-0.0001,0.0018,0.0023,0.014,0.014,0.014,0.0069,0,0,0,0,0,0,-0.032,-0.0316,-0.032,-0.028,-0.0271,-0.025,-0.0227,-0.0218,-0.02,-0.0197,-0.0125,-0.0111,-0.0066,-0.0014,0.0,0.0007,0.0027,0.014,0.014,0.014,0.0071,0.0066,0.0062,0,0,0,0,0,-0.0322,-0.0331,-0.032,-0.0316,-0.0278,-0.025,-0.0243,-0.0211,-0.0201,-0.0197,-0.0153,-0.0113,-0.0005,-0.001,0.0007,0.0016,0.014,0.014,0.014,0.0073,0.0067,0.0062,0,0,0,0,0,0,-0.0357,-0.0326,-0.0314,-0.0313,-0.0287,-0.0243,-0.0238,-0.0216,-0.0179,-0.0175,-0.0112,-0.0095,-0.0054,-0.001,-0.0018,0.0051,0.0074,0.0077,0.0018,0.0013,0.0008,-0.0006,0.0032,0,0,0,0,0,-0.0367,-0.0365,-0.0329,-0.033,-0.0319,-0.0279,-0.0265,-0.0244,-0.0206,-0.019,-0.0141,-0.0088,-0.0041,-0.0009,0.0037,0.0079,0.0127,0.0095,0.009,0.0086,0.0086,0.0153,0.0155,0.0139,0.0139,0.0139,0,0,-0.0383,-0.0365,-0.0364,-0.0337,-0.0314,-0.0304,-0.027,-0.0254,-0.0242,-0.0178,-0.0148,-0.0102,-0.0035,0.0004,0.0028,0.0043,0.0116,0.0086,0.0082,0.0084,0.0154,0.0155,0.0157,0.0139,0.0139,0.0139,0,0,-0.0414,-0.0395,-0.0404,-0.0384,-0.0355,-0.0327,-0.0325,-0.0283,-0.0261,-0.0227,-0.0181,-0.0136,-0.0063,-0.0015,0.0018,0.002,0.0085,0.0034,0.0008,0.0073,0.0075,0.0078,0.0137,0.0145,0.0037,0.0037,0.0037,0,-0.0435,-0.0438,-0.0402,-0.0403,-0.0391,-0.0342,-0.0346,-0.0314,-0.0263,-0.0241,-0.0228,-0.0124,-0.0071,-0.0013,-0.0019,0.0011,0.0054,0.0021,0.0067,0.007,0.0074,0.0135,0.0145,0.0033,0.0034,0.0034,0.0035,0,-0.0469,-0.047,-0.0473,-0.0457,-0.0438,-0.0433,-0.0386,-0.0362,-0.033,-0.0292,-0.0234,-0.0166,-0.0103,-0.008,-0.0049,0.0002,0.0027,0.0048,0.0078,0.0071,0.0136,0.0147,0.0029,0.003,0.0031,0.0032,0,0,-0.0527,-0.0503,-0.0505,-0.0505,-0.0466,-0.0455,-0.0431,-0.039,-0.037,-0.0314,-0.028,-0.0204,-0.0165,-0.0125,-0.0073,-0.0017,0.0041,0.0017,0.0022,0.007,0.0183,0.0207,0.0223,0.0069,0.007,0.0072,0.0216,0,-0.0567,-0.0588,-0.0556,-0.0565,-0.0571,-0.0514,-0.0495,-0.0448,-0.0398,-0.0351,-0.0269,-0.0218,-0.0181,-0.0152,-0.0093,0.0009,0.0069,-0.0,0.0188,0.0193,0.0211,0.0236,0.0189,0.0315,0.0228,0.023,0.0232,0,-0.0616,-0.062,-0.0647,-0.062,-0.0615,-0.0609,-0.0563,-0.0536,-0.0452,-0.0411,-0.0343,-0.0275,-0.0185,-0.0157,0.0016,-0.0031,0.0065,0.0144,0.0153,0.0209,0.0239,0.031,0.034,0.0252,0.025,0.0249,0.0247,0,-0.0687,-0.068,-0.0705,-0.0699,-0.0664,-0.0657,-0.063,-0.0562,-0.0529,-0.0447,-0.0409,-0.0298,-0.0225,-0.0104,0.0061,0.0039,0.0257,0.0255,0.0371,0.0374,0.0389,0.0391,0.0379,0.0378,0.0378,0.0378,0.0377,0,-0.0751,-0.0764,-0.0742,-0.0758,-0.0776,-0.0721,-0.0713,-0.0671,-0.0594,-0.0542,-0.0449,-0.0374,-0.0206,-0.006,0.0063,0.0263,0.0269,0.0377,0.0418,0.0363,0.036,0.0347,0.0341,0.0383,0.0382,0.0381,0.038,0,-0.0831,-0.0816,-0.0844,-0.0824,-0.0817,-0.0833,-0.0777,-0.0773,-0.0677,-0.0605,-0.0578,-0.041,-0.0216,-0.0039,0.0189,0.0284,0.0457,0.0527,0.0449,0.0478,0.0524,0.0513,0.0657,0.0659,0.0661,0.0663,0.0664,0,-0.0874,-0.0902,-0.0913,-0.0938,-0.0935,-0.093,-0.094,-0.0847,-0.0817,-0.0612,-0.0588,-0.0373,-0.0226,0.0105,0.0316,0.0543,0.0546,0.0631,0.058,0.0529,0.0555,0.0541,0.0528,0.0575,0.0576,0.0576,0.0576,0,-0.0956,-0.0964,-0.0989,-0.1061,-0.1088,-0.1089,-0.1067,-0.1038,-0.0894,-0.0778,-0.0573,-0.0429,-0.0101,0.014,0.0419,0.0543,0.0581,0.0646,0.0645,0.0502,0.0461,0.0483,0.0472,0.058,0.0579,0.0579,0.0579,0.0579,-0.1013,-0.1058,-0.1111,-0.1174,-0.123,-0.1247,-0.1225,-0.1156,-0.1056,-0.0855,-0.0626,-0.0368,-0.0141,0.0247,0.0457,0.0665,0.0657,0.0685,0.068,0.0676,0.063,0.0594,0.0729,0.073,0.073,0.0731,0.0731,0,-0.1068,-0.1125,-0.1212,-0.1294,-0.1381,-0.1364,-0.132,-0.1262,-0.1139,-0.0908,-0.0671,-0.0316,-0.0054,0.0213,0.0534,0.07,0.0674,0.0728,0.0651,0.0646,0.0643,0.0592,0.0683,0.0684,0.0684,0.0685,0,0,-0.1097,-0.1194,-0.1247,-0.1411,-0.1467,-0.1518,-0.1474,-0.1352,-0.1174,-0.0923,-0.0673,-0.0435,-0.007,0.0136,0.0354,0.0536,0.0539,0.0548,0.0564,0.0439,0.0433,0.0595,0.051,0,0,0,0,0]}],[{"header":{"parameterUnit":"m.s-1","parameterCategory":2,"la1":30.2991,"la2":30.254,"lo1":-89.0895,"lo2":-89.0444,"dy":0.0017,"dx":0.0017,"nx":28,"ny":28,"refTime":"2025-05-15T09:00:00:Z","depth":"4","parameterNumber":2,"parameterNumberName":"U-component_of_CURRENTS"},"data":[0,0,0,0,0,0,0,0,0,0,0,0,0,0,0,0,0,0,0,0,0,0,0,0,0,0,0,0,0,0,0,0,0,0,0,0,0,0,0,0,0,0,0,0,0,0,0,0,0,0,0,0,0,0,0,0,0,0,-0.1738,-0.1738,0,-0.1811,-0.1812,-0.1812,-0.1864,-0.1864,-0.1865,-0.1865,-0.1944,-0.1946,-0.1947,0,0,0,0,0,0,0,0,0,0,0,0,0,-0.1629,-0.163,-0.1737,-0.1739,-0.174,-0.1811,-0.1812,-0.1813,-0.1864,-0.1864,-0.1865,-0.1866,-0.1944,-0.1945,-0.1947,0,0,0,0,0,0,0,0,0,0,0,0,0,-0.1685,-0.1631,-0.1737,-0.1775,-0.1779,-0.1811,-0.1812,-0.1813,-0.1863,-0.1864,-0.1865,-0.1866,-0.1943,-0.1945,-0.1948,-0.1945,0,0,-0.1955,-0.1956,0,0,0,0,0,0,0,0,-0.1681,-0.1688,-0.1768,-0.1773,-0.1777,-0.1831,-0.1803,-0.1858,-0.1863,-0.1829,-0.1865,-0.1866,-0.1907,-0.1913,-0.1922,-0.1949,-0.1952,-0.1955,-0.1956,-0.1957,-0.1958,0,0,0,0,0,0,0,-0.1678,-0.1685,-0.1765,-0.177,-0.1775,-0.1784,-0.1793,-0.1813,-0.1861,-0.1832,-0.1837,-0.1848,-0.191,-0.1919,-0.1924,-0.1953,-0.1955,-0.1957,-0.1958,-0.1959,-0.2048,-0.2049,0,0,0,0,0,0,-0.1672,-0.1682,-0.1762,-0.1767,-0.1733,-0.1786,-0.1796,-0.1811,-0.1861,-0.187,-0.1847,-0.185,-0.1915,-0.1921,-0.1927,-0.1999,-0.1957,-0.196,-0.1961,-0.2047,-0.2048,-0.2049,0,0,0,0,0,0,-0.167,-0.1679,-0.1759,-0.1727,-0.1739,-0.1787,-0.1804,-0.1812,-0.1855,-0.1873,-0.1881,-0.1885,-0.1916,-0.1924,-0.1972,-0.2,-0.1961,-0.1963,-0.2046,-0.2047,-0.2049,-0.2096,0,0,0,0,0,0,-0.1666,-0.1678,-0.1701,-0.1727,-0.174,-0.1803,-0.1804,-0.1813,-0.1859,-0.1865,-0.1908,-0.1914,-0.1917,-0.1968,-0.1974,-0.2002,-0.1965,-0.2045,-0.2047,-0.2048,-0.2093,-0.2099,-0.2104,0,0,0,0,0,-0.1662,-0.1689,-0.1702,-0.1713,-0.1767,-0.1804,-0.1813,-0.1847,-0.1861,-0.1887,-0.1914,-0.1914,-0.1983,-0.1971,-0.1978,-0.2007,-0.2044,-0.2046,-0.2048,-0.2091,-0.2098,-0.2104,0,0,0,0,0,0,-0.1657,-0.1698,-0.1712,-0.1752,-0.1787,-0.1815,-0.1848,-0.1865,-0.1907,-0.1921,-0.1931,-0.194,-0.1989,-0.1991,-0.1977,-0.2036,-0.2012,-0.2015,-0.2042,-0.2049,-0.2054,-0.2049,-0.1967,0,0,0,0,0,-0.1665,-0.1698,-0.1733,-0.1769,-0.1789,-0.1823,-0.1848,-0.1872,-0.1904,-0.1925,-0.1953,-0.1977,-0.1997,-0.2019,-0.2037,-0.2075,-0.2053,-0.2095,-0.2101,-0.2105,-0.2105,-0.21,-0.2105,-0.2056,-0.2056,-0.2056,0,0,-0.1674,-0.1701,-0.1722,-0.177,-0.1801,-0.1838,-0.1841,-0.1891,-0.1925,-0.1926,-0.199,-0.2002,-0.201,-0.205,-0.2072,-0.2062,-0.2105,-0.2108,-0.2112,-0.2109,-0.2103,-0.2108,-0.2112,-0.2058,-0.2057,-0.2057,0,0,-0.1698,-0.1733,-0.1767,-0.1799,-0.1852,-0.1871,-0.1892,-0.1939,-0.1969,-0.202,-0.2024,-0.2054,-0.2096,-0.2103,-0.2109,-0.2154,-0.2132,-0.2165,-0.2194,-0.219,-0.2193,-0.2196,-0.2162,-0.2162,-0.217,-0.217,-0.217,0,-0.1709,-0.1752,-0.1784,-0.1823,-0.1853,-0.189,-0.1928,-0.1963,-0.202,-0.204,-0.2051,-0.2103,-0.2116,-0.2147,-0.2162,-0.2167,-0.215,-0.217,-0.2196,-0.2199,-0.2201,-0.2165,-0.2164,-0.2172,-0.2172,-0.2172,-0.2172,0,-0.1747,-0.1794,-0.1819,-0.1877,-0.1913,-0.1956,-0.1999,-0.2043,-0.2078,-0.2101,-0.2153,-0.2169,-0.2193,-0.2205,-0.22,-0.2226,-0.2203,-0.2201,-0.2178,-0.2208,-0.2168,-0.2167,-0.2176,-0.2175,-0.2174,-0.2174,0,0,-0.1733,-0.1828,-0.1838,-0.1875,-0.1945,-0.1975,-0.2034,-0.2085,-0.2121,-0.2173,-0.2208,-0.2245,-0.225,-0.2257,-0.2258,-0.2261,-0.2259,-0.2244,-0.2242,-0.2206,-0.2229,-0.2079,-0.2062,-0.2266,-0.2266,-0.2266,-0.219,0,-0.1753,-0.183,-0.1871,-0.1944,-0.1984,-0.2032,-0.2079,-0.213,-0.2171,-0.2216,-0.2237,-0.2273,-0.2272,-0.2286,-0.229,-0.2267,-0.2259,-0.2278,-0.2208,-0.2205,-0.2066,-0.2057,-0.2267,-0.2188,-0.2187,-0.2187,-0.2187,0,-0.1764,-0.1817,-0.1892,-0.1975,-0.1997,-0.2047,-0.2117,-0.2165,-0.2224,-0.2253,-0.229,-0.2304,-0.2321,-0.2316,-0.2291,-0.2305,-0.2271,-0.225,-0.2246,-0.2088,-0.2052,-0.2155,-0.2183,-0.2183,-0.2183,-0.2184,-0.2184,0,-0.1722,-0.1825,-0.1885,-0.1917,-0.2016,-0.206,-0.2112,-0.2179,-0.2209,-0.2278,-0.2289,-0.2326,-0.2325,-0.2314,-0.2267,-0.2284,-0.2219,-0.2234,-0.2064,-0.2052,-0.2192,-0.2189,-0.2209,-0.221,-0.221,-0.221,-0.221,0,-0.1703,-0.1755,-0.188,-0.1913,-0.1975,-0.2054,-0.2114,-0.2167,-0.223,-0.2231,-0.2303,-0.2283,-0.2326,-0.2291,-0.2264,-0.2134,-0.2211,-0.2052,-0.202,-0.2211,-0.2212,-0.2189,-0.2187,-0.2207,-0.2208,-0.2208,-0.2209,0,-0.1633,-0.1723,-0.1797,-0.1921,-0.1958,-0.2004,-0.2101,-0.2114,-0.2203,-0.2201,-0.2216,-0.2249,-0.2187,-0.2195,-0.2153,-0.209,-0.2015,-0.1953,-0.213,-0.2113,-0.1854,-0.1856,-0.1754,-0.1748,-0.1743,-0.1738,-0.1735,0,-0.1598,-0.1635,-0.178,-0.18,-0.1858,-0.1939,-0.1956,-0.2079,-0.2075,-0.2135,-0.209,-0.2087,-0.2079,-0.1885,-0.1937,-0.1865,-0.1851,-0.1809,-0.1856,-0.1826,-0.1806,-0.1817,-0.1826,-0.1727,-0.1725,-0.1724,-0.1723,0,-0.1511,-0.1584,-0.1631,-0.1678,-0.1719,-0.1766,-0.1812,-0.1812,-0.19,-0.1999,-0.1895,-0.186,-0.1781,-0.1751,-0.1703,-0.1664,-0.1842,-0.1756,-0.1767,-0.1812,-0.1792,-0.178,-0.1795,-0.1705,-0.1708,-0.1709,-0.171,0,-0.1426,-0.1431,-0.1487,-0.151,-0.1557,-0.155,-0.1623,-0.1596,-0.163,-0.1713,-0.1665,-0.167,-0.1725,-0.1641,-0.1597,-0.1546,-0.1537,-0.1506,-0.1531,-0.1551,-0.1526,-0.1474,-0.1242,0,0,0,0,0,-0.1323,-0.1292,-0.1294,-0.1314,-0.1356,-0.1388,-0.1473,-0.1544,-0.1654,-0.1516,-0.1594,-0.151,-0.1444,-0.1466,-0.1369,-0.1528,-0.1559,-0.1414,-0.1542,-0.1608,-0.1628,-0.1621,0,0,0,0,0,0,-0.1238,-0.1238,-0.1232,-0.1137,-0.1112,-0.1139,-0.1201,-0.1286,-0.1236,-0.1351,-0.1312,-0.1403,-0.1358,-0.1444,-0.1323,-0.1333,-0.1381,-0.1444,-0.144,-0.1596,-0.1615,-0.1631,-0.1631,0,0,0,0,0]},{"header":{"parameterUnit":"m.s-1","parameterCategory":2,"la1":30.2991,"la2":30.254,"lo1":-89.0895,"lo2":-89.0444,"dy":0.0017,"dx":0.0017,"nx":28,"ny":28,"refTime":"2025-05-15T09:00:00:Z","depth":"4","parameterNumber":3,"parameterNumberName":"V-component_of_CURRENTS"},"data":[0,0,0,0,0,0,0,0,0,0,0,0,0,0,0,0,0,0,0,0,0,0,0,0,0,0,0,0,0,0,0,0,0,0,0,0,0,0,0,0,0,0,0,0,0,0,0,0,0,0,0,0,0,0,0,0,0,0,-0.025,-0.0249,0,-0.0194,-0.0193,-0.0192,-0.0165,-0.0165,-0.0165,-0.0165,-0.0046,-0.0043,-0.004,0,0,0,0,0,0,0,0,0,0,0,0,0,-0.0286,-0.0285,-0.025,-0.0249,-0.0249,-0.0194,-0.0193,-0.0192,-0.0165,-0.0165,-0.0165,-0.0165,-0.0047,-0.0043,-0.0039,0,0,0,0,0,0,0,0,0,0,0,0,0,-0.0253,-0.0285,-0.025,-0.0229,-0.0227,-0.0194,-0.0193,-0.0192,-0.0165,-0.0165,-0.0165,-0.0165,-0.0048,-0.0044,-0.0039,-0.0005,0,0,-0.0024,-0.0022,0,0,0,0,0,0,0,0,-0.0255,-0.0252,-0.0233,-0.0231,-0.0228,-0.0187,-0.0162,-0.0127,-0.0165,-0.0188,-0.0165,-0.0166,-0.0088,-0.008,-0.0068,0.0,0.0005,-0.0023,-0.002,-0.0018,-0.0017,0,0,0,0,0,0,0,-0.0257,-0.0254,-0.0227,-0.0232,-0.0229,-0.0206,-0.0202,-0.0155,-0.0136,-0.0186,-0.0184,-0.0179,-0.0086,-0.0073,-0.0065,0.0007,-0.0023,-0.0019,-0.0016,-0.0014,0.01,0.01,0,0,0,0,0,0,-0.0269,-0.0256,-0.0228,-0.0225,-0.0243,-0.0206,-0.0201,-0.0199,-0.0137,-0.0129,-0.0179,-0.0178,-0.0082,-0.0071,-0.0061,-0.0023,-0.0018,-0.0014,-0.0011,0.01,0.01,0.01,0,0,0,0,0,0,-0.027,-0.0267,-0.0231,-0.024,-0.0234,-0.0206,-0.0203,-0.0198,-0.0189,-0.0133,-0.0123,-0.0176,-0.0081,-0.0068,-0.0028,-0.0017,-0.0011,-0.0007,0.01,0.01,0.01,0.0058,0,0,0,0,0,0,-0.0271,-0.0268,-0.0272,-0.0241,-0.0234,-0.0215,-0.0203,-0.0197,-0.0186,-0.0184,-0.0127,-0.0116,-0.008,-0.0035,-0.0023,-0.0011,-0.0003,0.0099,0.01,0.01,0.0059,0.0056,0.0054,0,0,0,0,0,-0.0272,-0.0276,-0.0273,-0.027,-0.0241,-0.0215,-0.0209,-0.0189,-0.0186,-0.0181,-0.0148,-0.0118,-0.0025,-0.0031,-0.0016,-0.0003,0.0099,0.01,0.01,0.006,0.0057,0.0054,0,0,0,0,0,0,-0.0295,-0.0273,-0.0269,-0.0267,-0.0246,-0.0211,-0.0207,-0.0193,-0.0163,-0.0163,-0.0114,-0.01,-0.0063,-0.0028,-0.0036,0.0029,0.0042,0.0045,0.0006,0.0004,0.0002,-0.0008,0.0001,0,0,0,0,0,-0.0303,-0.0302,-0.0275,-0.0275,-0.0266,-0.0239,-0.0227,-0.0213,-0.0183,-0.0171,-0.0132,-0.009,-0.0049,-0.0022,0.0017,0.0059,0.0087,0.0076,0.0073,0.0071,0.0072,0.0121,0.0123,0.01,0.01,0.01,0,0,-0.0314,-0.0302,-0.0302,-0.028,-0.0264,-0.0249,-0.0232,-0.0218,-0.0204,-0.016,-0.013,-0.0097,-0.0043,-0.0004,0.0017,0.0028,0.0089,0.0071,0.0069,0.0072,0.0122,0.0124,0.0126,0.01,0.01,0.01,0,0,-0.0329,-0.0323,-0.0324,-0.0307,-0.0285,-0.0264,-0.0263,-0.023,-0.0213,-0.0182,-0.015,-0.0113,-0.0051,-0.0009,0.002,0.003,0.007,0.0041,0.0031,0.0078,0.0081,0.0083,0.0107,0.0112,0.0046,0.0046,0.0046,0,-0.0345,-0.034,-0.032,-0.0312,-0.0302,-0.0273,-0.0267,-0.0242,-0.02,-0.0185,-0.0179,-0.0096,-0.0051,0.0004,0.0004,0.0027,0.0048,0.0037,0.0075,0.0078,0.0082,0.0106,0.0112,0.0044,0.0044,0.0045,0.0045,0,-0.0353,-0.0351,-0.035,-0.0331,-0.0315,-0.0307,-0.0271,-0.0253,-0.0234,-0.0207,-0.0162,-0.0108,-0.0059,-0.0037,-0.0011,0.0036,0.004,0.006,0.008,0.0081,0.0107,0.0114,0.0041,0.0042,0.0043,0.0043,0,0,-0.0391,-0.0362,-0.0365,-0.0364,-0.0326,-0.0319,-0.029,-0.0257,-0.025,-0.0201,-0.0181,-0.0108,-0.0089,-0.0055,-0.0015,0.0031,0.0069,0.005,0.0054,0.007,0.0154,0.0114,0.0118,0.0093,0.0094,0.0095,0.0157,0,-0.0408,-0.0409,-0.038,-0.038,-0.0379,-0.0338,-0.0319,-0.0286,-0.0255,-0.0229,-0.0163,-0.0133,-0.0092,-0.0079,-0.0024,0.0042,0.0087,0.0049,0.0155,0.0158,0.012,0.0126,0.0099,0.0163,0.0164,0.0166,0.0166,0,-0.043,-0.0428,-0.0436,-0.0416,-0.0412,-0.0406,-0.0383,-0.0359,-0.0304,-0.0279,-0.0228,-0.0185,-0.0111,-0.0085,0.0042,0.0012,0.0078,0.0133,0.0137,0.0121,0.0132,0.0167,0.018,0.0179,0.0178,0.0177,0.0176,0,-0.0487,-0.0469,-0.0483,-0.0476,-0.0447,-0.0446,-0.0429,-0.0385,-0.0376,-0.0319,-0.0313,-0.0215,-0.0183,-0.0074,0.003,0.0039,0.0157,0.0188,0.0219,0.0216,0.0252,0.0249,0.0281,0.0281,0.0281,0.0281,0.0281,0,-0.0519,-0.0532,-0.0519,-0.0531,-0.0559,-0.0509,-0.0527,-0.0495,-0.0453,-0.0454,-0.0355,-0.034,-0.018,-0.0098,0.0014,0.0122,0.0148,0.0215,0.0233,0.023,0.0224,0.0256,0.0253,0.0283,0.0283,0.0282,0.0282,0,-0.0583,-0.0568,-0.0598,-0.0588,-0.0593,-0.0621,-0.0609,-0.0625,-0.0562,-0.0561,-0.0547,-0.0434,-0.0323,-0.0172,-0.0004,0.0081,0.0202,0.0236,0.0197,0.0212,0.0237,0.0231,0.029,0.0289,0.0288,0.0288,0.0287,0,-0.061,-0.0634,-0.067,-0.071,-0.0715,-0.0738,-0.0768,-0.0706,-0.0711,-0.0627,-0.0639,-0.0525,-0.0441,-0.0238,-0.0068,0.0141,0.0175,0.0234,0.0268,0.0229,0.0241,0.0235,0.023,0.0286,0.0286,0.0286,0.0285,0,-0.0671,-0.0698,-0.0728,-0.0814,-0.0866,-0.0907,-0.0924,-0.0927,-0.0854,-0.0802,-0.072,-0.0584,-0.0462,-0.0269,-0.0115,0.004,0.0198,0.0228,0.0232,0.0264,0.0225,0.0236,0.0232,0.0283,0.0283,0.0284,0.0284,0,-0.0729,-0.0778,-0.0833,-0.0902,-0.0981,-0.1039,-0.1035,-0.1013,-0.0986,-0.0859,-0.0845,-0.0664,-0.0546,-0.0324,-0.0184,-0.0036,0.0021,0.0079,0.0091,0.0096,0.0026,-0.0053,-0.0066,0,0,0,0,0,-0.077,-0.0825,-0.0909,-0.0975,-0.1057,-0.1089,-0.1124,-0.1099,-0.1024,-0.0987,-0.0895,-0.0772,-0.0524,-0.0412,-0.0272,-0.0199,0.0033,-0.003,0.0102,0.027,0.0273,0.022,0,0,0,0,0,0,-0.0797,-0.0881,-0.0917,-0.1018,-0.1069,-0.1146,-0.1173,-0.1131,-0.1079,-0.0986,-0.0861,-0.0738,-0.051,-0.0603,-0.0267,-0.0218,-0.0117,0.0103,0.0106,0.0268,0.0271,0.0273,0.022,0,0,0,0,0]}]]